Location: Le Petit-Vavre
(46.5081°N, 1.5239°E)
Time: 16:10:18
(UTC+00:00)

Meteor 1-19 Rocket - Pass Details

Date: 03 March 2021
Orbit: 807 x 928 km, 81.2° (Epoch: 17 April)

Event Time Altitude Azimuth Distance (km) Brightness Sun altitude
Rises 18:40:56 0° 348° (NNW) 3,568 7.6 -10.8°
Reaches altitude 10° 18:43:27 10° 348° (NNW) 2,611 6.9 -11.2°
Maximum altitude 18:49:26 88° 262° (W) 902 4.4 -12.2°
Drops below altitude 10° 18:55:11 10° 172° (S) 2,517 6.5 -13.2°
Sets 18:57:34 0° 172° (S) 3,432 7.2 -13.6°
